Time,TemperatureF,DewpointF,PressureIn,WindDirection,WindDirectionDegrees,WindSpeedMPH,WindSpeedGustMPH,Humidity,HourlyPrecipIn,Conditions,Clouds,dailyrainin,SoftwareType,DateUTC
2013-01-22 00:07:00,42.7,36.0,30.18,WNW,285,0.0,2.0,76,0.00,,,0.00,weatherlink.com 1.10,2013-01-22 06:07:00,
2013-01-22 00:22:00,42.6,35.0,30.18,WNW,291,1.0,1.0,75,0.00,,,0.00,weatherlink.com 1.10,2013-01-22 06:22:00,
2013-01-22 00:37:00,42.3,35.0,30.19,West,276,1.0,2.0,75,0.00,,,0.00,weatherlink.com 1.10,2013-01-22 06:37:00,
2013-01-22 00:52:00,42.1,34.0,30.19,WNW,293,1.0,2.0,74,0.00,,,0.00,weatherlink.com 1.10,2013-01-22 06:52:00,
2013-01-22 01:07:00,41.7,34.0,30.18,West,275,0.0,2.0,74,0.00,,,0.00,weatherlink.com 1.10,2013-01-22 07:07:00,
2013-01-22 01:22:00,41.3,34.0,30.19,WNW,285,1.0,2.0,75,0.00,,,0.00,weatherlink.com 1.10,2013-01-22 07:22:00,
2013-01-22 01:37:00,41.2,34.0,30.20,WNW,290,1.0,2.0,74,0.00,,,0.00,weatherlink.com 1.10,2013-01-22 07:37:00,
2013-01-22 01:52:00,40.7,33.0,30.20,West,278,0.0,1.0,73,0.00,,,0.00,weatherlink.com 1.10,2013-01-22 07:52:00,
2013-01-22 02:07:00,40.2,33.0,30.20,West,275,0.0,1.0,75,0.00,,,0.00,weatherlink.com 1.10,2013-01-22 08:07:00,
2013-01-22 02:22:00,39.6,32.0,30.20,WNW,284,0.0,1.0,75,0.00,,,0.00,weatherlink.com 1.10,2013-01-22 08:22:00,
2013-01-22 02:37:00,38.5,33.0,30.20,WNW,284,0.0,1.0,79,0.00,,,0.00,weatherlink.com 1.10,2013-01-22 08:37:00,
2013-01-22 02:52:00,38.6,32.0,30.20,WNW,283,0.0,2.0,77,0.00,,,0.00,weatherlink.com 1.10,2013-01-22 08:52:00,
2013-01-22 03:07:00,38.6,32.0,30.21,WNW,287,0.0,2.0,76,0.00,,,0.00,weatherlink.com 1.10,2013-01-22 09:07:00,
2013-01-22 03:22:00,38.2,32.0,30.21,West,281,0.0,1.0,78,0.00,,,0.00,weatherlink.com 1.10,2013-01-22 09:22:00,
2013-01-22 03:38:00,37.6,31.0,30.21,WNW,282,0.0,1.0,78,0.00,,,0.00,weatherlink.com 1.10,2013-01-22 09:38:00,
2013-01-22 03:53:00,37.2,31.0,30.22,WNW,298,0.0,1.0,78,0.00,,,0.00,weatherlink.com 1.10,2013-01-22 09:53:00,
2013-01-22 04:08:00,37.0,31.0,30.22,WNW,295,1.0,1.0,78,0.00,,,0.00,weatherlink.com 1.10,2013-01-22 10:08:00,
2013-01-22 04:23:00,36.9,31.0,30.23,WNW,297,0.0,2.0,78,0.00,,,0.00,weatherlink.com 1.10,2013-01-22 10:23:00,
2013-01-22 04:38:00,36.9,31.0,30.24,WNW,284,1.0,2.0,78,0.00,,,0.00,weatherlink.com 1.10,2013-01-22 10:38:00,
2013-01-22 04:53:00,36.5,30.0,30.24,WNW,293,0.0,3.0,76,0.00,,,0.00,weatherlink.com 1.10,2013-01-22 10:53:00,
2013-01-22 05:08:00,35.8,29.0,30.25,WNW,288,1.0,1.0,77,0.00,,,0.00,weatherlink.com 1.10,2013-01-22 11:08:00,
2013-01-22 05:23:00,35.6,29.0,30.26,WNW,294,1.0,2.0,78,0.00,,,0.00,weatherlink.com 1.10,2013-01-22 11:23:00,
2013-01-22 05:38:00,35.3,29.0,30.26,WNW,301,2.0,2.0,77,0.00,,,0.00,weatherlink.com 1.10,2013-01-22 11:38:00,
2013-01-22 05:53:00,34.8,29.0,30.27,WNW,294,1.0,2.0,79,0.00,,,0.00,weatherlink.com 1.10,2013-01-22 11:53:00,
2013-01-22 06:08:00,34.6,28.0,30.27,WNW,302,0.0,2.0,78,0.00,,,0.00,weatherlink.com 1.10,2013-01-22 12:08:00,
2013-01-22 06:23:00,34.1,28.0,30.28,NW,313,0.0,1.0,78,0.00,,,0.00,weatherlink.com 1.10,2013-01-22 12:23:00,
2013-01-22 06:38:00,33.8,28.0,30.29,WNW,298,1.0,2.0,78,0.00,,,0.00,weatherlink.com 1.10,2013-01-22 12:38:00,
2013-01-22 06:53:00,33.3,28.0,30.29,WNW,298,0.0,1.0,80,0.00,,,0.00,weatherlink.com 1.10,2013-01-22 12:53:00,
2013-01-22 07:08:00,33.1,28.0,30.29,WNW,288,1.0,1.0,81,0.00,,,0.00,weatherlink.com 1.10,2013-01-22 13:08:00,
2013-01-22 07:23:00,33.4,28.0,30.30,WNW,288,1.0,3.0,79,0.00,,,0.00,weatherlink.com 1.10,2013-01-22 13:23:00,
2013-01-22 07:38:00,34.7,28.0,30.31,NW,312,0.0,3.0,76,0.00,,,0.00,weatherlink.com 1.10,2013-01-22 13:38:00,
2013-01-22 07:53:00,36.8,27.0,30.31,West,280,1.0,2.0,69,0.00,,,0.00,weatherlink.com 1.10,2013-01-22 13:53:00,
2013-01-22 08:08:00,38.1,28.0,30.32,West,277,0.0,1.0,68,0.00,,,0.00,weatherlink.com 1.10,2013-01-22 14:08:00,
2013-01-22 08:23:00,39.6,27.0,30.33,WNW,301,0.0,3.0,61,0.00,,,0.00,weatherlink.com 1.10,2013-01-22 14:23:00,
2013-01-22 08:38:00,41.4,26.0,30.33,East,84,1.0,4.0,55,0.00,,,0.00,weatherlink.com 1.10,2013-01-22 14:38:00,
2013-01-22 08:53:00,42.8,26.0,30.34,NNW,343,1.0,7.0,51,0.00,,,0.00,weatherlink.com 1.10,2013-01-22 14:53:00,
2013-01-22 09:08:00,43.9,24.0,30.34,WNW,303,3.0,8.0,45,0.00,,,0.00,weatherlink.com 1.10,2013-01-22 15:08:00,
2013-01-22 09:24:00,44.4,25.0,30.34,West,259,1.0,6.0,47,0.00,,,0.00,weatherlink.com 1.10,2013-01-22 15:24:00,
2013-01-22 09:39:00,46.0,27.0,30.35,NW,326,2.0,5.0,48,0.00,,,0.00,weatherlink.com 1.10,2013-01-22 15:39:00,
2013-01-22 09:54:00,47.0,25.0,30.35,West,267,0.0,4.0,42,0.00,,,0.00,weatherlink.com 1.10,2013-01-22 15:54:00,
2013-01-22 10:09:00,48.1,25.0,30.35,NW,309,1.0,6.0,40,0.00,,,0.00,weatherlink.com 1.10,2013-01-22 16:09:00,
2013-01-22 10:24:00,49.3,25.0,30.35,ESE,114,1.0,3.0,39,0.00,,,0.00,weatherlink.com 1.10,2013-01-22 16:24:00,
2013-01-22 10:39:00,49.9,26.0,30.34,ENE,74,5.0,5.0,40,0.00,,,0.00,weatherlink.com 1.10,2013-01-22 16:39:00,
2013-01-22 10:54:00,51.3,26.0,30.34,WNW,293,3.0,4.0,37,0.00,,,0.00,weatherlink.com 1.10,2013-01-22 16:54:00,
2013-01-22 11:09:00,51.4,26.0,30.33,WNW,300,2.0,4.0,37,0.00,,,0.00,weatherlink.com 1.10,2013-01-22 17:09:00,
2013-01-22 11:24:00,52.1,25.0,30.33,SW,218,2.0,6.0,35,0.00,,,0.00,weatherlink.com 1.10,2013-01-22 17:24:00,
2013-01-22 11:39:00,52.6,25.0,30.32,SE,138,0.0,5.0,35,0.00,,,0.00,weatherlink.com 1.10,2013-01-22 17:39:00,
2013-01-22 11:54:00,52.8,25.0,30.32,WNW,290,1.0,6.0,34,0.00,,,0.00,weatherlink.com 1.10,2013-01-22 17:54:00,
2013-01-22 12:09:00,53.1,24.0,30.31,WNW,282,1.0,6.0,32,0.00,,,0.00,weatherlink.com 1.10,2013-01-22 18:09:00,
2013-01-22 12:24:00,54.5,26.0,30.30,SE,141,1.0,9.0,33,0.00,,,0.00,weatherlink.com 1.10,2013-01-22 18:24:00,
2013-01-22 12:39:00,55.5,25.0,30.29,WNW,297,1.0,6.0,31,0.00,,,0.00,weatherlink.com 1.10,2013-01-22 18:39:00,
2013-01-22 12:54:00,55.5,26.0,30.29,West,275,0.0,4.0,32,0.00,,,0.00,weatherlink.com 1.10,2013-01-22 18:54:00,
2013-01-22 13:09:00,56.0,26.0,30.28,NW,305,3.0,9.0,32,0.00,,,0.00,weatherlink.com 1.10,2013-01-22 19:09:00,
2013-01-22 13:24:00,55.5,25.0,30.27,WNW,291,0.0,8.0,31,0.00,,,0.00,weatherlink.com 1.10,2013-01-22 19:24:00,
2013-01-22 13:39:00,56.4,27.0,30.27,SW,214,1.0,4.0,33,0.00,,,0.00,weatherlink.com 1.10,2013-01-22 19:39:00,
2013-01-22 13:54:00,56.8,26.0,30.27,NW,304,2.0,6.0,31,0.00,,,0.00,weatherlink.com 1.10,2013-01-22 19:54:00,
2013-01-22 14:09:00,56.9,27.0,30.27,NNW,330,2.0,8.0,32,0.00,,,0.00,weatherlink.com 1.10,2013-01-22 20:09:00,
2013-01-22 14:24:00,57.4,28.0,30.27,ESE,105,0.0,5.0,33,0.00,,,0.00,weatherlink.com 1.10,2013-01-22 20:24:00,
2013-01-22 14:39:00,56.9,29.0,30.27,West,271,2.0,5.0,34,0.00,,,0.00,weatherlink.com 1.10,2013-01-22 20:39:00,
2013-01-22 14:54:00,56.7,29.0,30.27,ENE,75,1.0,4.0,35,0.00,,,0.00,weatherlink.com 1.10,2013-01-22 20:54:00,
2013-01-22 15:09:00,56.2,29.0,30.27,West,275,1.0,5.0,35,0.00,,,0.00,weatherlink.com 1.10,2013-01-22 21:09:00,
2013-01-22 15:24:00,56.5,29.0,30.27,NW,305,2.0,4.0,35,0.00,,,0.00,weatherlink.com 1.10,2013-01-22 21:24:00,
2013-01-22 15:39:00,56.4,30.0,30.27,WSW,250,1.0,4.0,37,0.00,,,0.00,weatherlink.com 1.10,2013-01-22 21:39:00,
2013-01-22 15:54:00,55.6,29.0,30.28,WNW,294,0.0,2.0,36,0.00,,,0.00,weatherlink.com 1.10,2013-01-22 21:54:00,
2013-01-22 16:09:00,54.6,30.0,30.28,WNW,297,0.0,3.0,39,0.00,,,0.00,weatherlink.com 1.10,2013-01-22 22:09:00,
2013-01-22 16:24:00,53.6,28.0,30.28,WNW,298,0.0,2.0,38,0.00,,,0.00,weatherlink.com 1.10,2013-01-22 22:24:00,
2013-01-22 16:39:00,52.5,30.0,30.28,WSW,245,0.0,1.0,43,0.00,,,0.00,weatherlink.com 1.10,2013-01-22 22:39:00,
2013-01-22 16:54:00,50.8,31.0,30.28,WSW,252,0.0,1.0,47,0.00,,,0.00,weatherlink.com 1.10,2013-01-22 22:54:00,
2013-01-22 17:09:00,49.3,31.0,30.28,WSW,252,0.0,0.0,49,0.00,,,0.00,weatherlink.com 1.10,2013-01-22 23:09:00,
2013-01-22 17:24:00,47.9,30.0,30.28,WSW,252,0.0,0.0,50,0.00,,,0.00,weatherlink.com 1.10,2013-01-22 23:24:00,
2013-01-22 17:39:00,46.3,30.0,30.29,WSW,252,0.0,0.0,53,0.00,,,0.00,weatherlink.com 1.10,2013-01-22 23:39:00,
2013-01-22 17:54:00,45.1,30.0,30.29,WSW,252,0.0,0.0,57,0.00,,,0.00,weatherlink.com 1.10,2013-01-22 23:54:00,
2013-01-22 18:09:00,44.1,30.0,30.29,WSW,252,0.0,0.0,59,0.00,,,0.00,weatherlink.com 1.10,2013-01-23 00:09:00,
2013-01-22 18:24:00,43.2,32.0,30.29,WSW,252,0.0,0.0,66,0.00,,,0.00,weatherlink.com 1.10,2013-01-23 00:24:00,
2013-01-22 18:39:00,42.1,31.0,30.29,WSW,252,0.0,0.0,65,0.00,,,0.00,weatherlink.com 1.10,2013-01-23 00:39:00,
2013-01-22 18:54:00,41.9,32.0,30.29,WSW,252,0.0,0.0,69,0.00,,,0.00,weatherlink.com 1.10,2013-01-23 00:54:00,
2013-01-22 19:09:00,41.4,30.0,30.29,WSW,252,0.0,0.0,65,0.00,,,0.00,weatherlink.com 1.10,2013-01-23 01:09:00,
2013-01-22 19:24:00,41.4,32.0,30.30,WSW,252,0.0,0.0,68,0.00,,,0.00,weatherlink.com 1.10,2013-01-23 01:24:00,
2013-01-22 19:39:00,40.6,32.0,30.30,WSW,252,0.0,0.0,72,0.00,,,0.00,weatherlink.com 1.10,2013-01-23 01:39:00,
2013-01-22 19:54:00,39.5,33.0,30.30,WSW,252,0.0,0.0,77,0.00,,,0.00,weatherlink.com 1.10,2013-01-23 01:54:00,
2013-01-22 20:09:00,39.0,31.0,30.31,WSW,252,0.0,0.0,73,0.00,,,0.00,weatherlink.com 1.10,2013-01-23 02:09:00,
2013-01-22 20:24:00,41.6,31.0,30.31,West,277,0.0,1.0,67,0.00,,,0.00,weatherlink.com 1.10,2013-01-23 02:24:00,
2013-01-22 20:40:00,42.0,31.0,30.32,West,277,0.0,1.0,66,0.00,,,0.00,weatherlink.com 1.10,2013-01-23 02:40:00,
2013-01-22 20:54:00,42.4,30.0,30.32,West,277,0.0,1.0,62,0.00,,,0.00,weatherlink.com 1.10,2013-01-23 02:54:00,
2013-01-22 21:09:00,41.7,31.0,30.32,West,277,0.0,0.0,66,0.00,,,0.00,weatherlink.com 1.10,2013-01-23 03:09:00,
2013-01-22 21:24:00,40.1,29.0,30.33,West,277,0.0,0.0,66,0.00,,,0.00,weatherlink.com 1.10,2013-01-23 03:24:00,
2013-01-22 21:39:00,39.2,29.0,30.33,West,277,0.0,0.0,67,0.00,,,0.00,weatherlink.com 1.10,2013-01-23 03:39:00,
2013-01-22 21:54:00,39.0,28.0,30.33,West,277,0.0,0.0,64,0.00,,,0.00,weatherlink.com 1.10,2013-01-23 03:54:00,
2013-01-22 22:09:00,39.0,32.0,30.33,West,277,0.0,1.0,77,0.00,,,0.00,weatherlink.com 1.10,2013-01-23 04:09:00,
2013-01-22 22:24:00,38.1,31.0,30.33,West,277,0.0,0.0,74,0.00,,,0.00,weatherlink.com 1.10,2013-01-23 04:24:00,
2013-01-22 22:39:00,37.6,30.0,30.33,West,277,0.0,0.0,74,0.00,,,0.00,weatherlink.com 1.10,2013-01-23 04:39:00,
2013-01-22 22:54:00,37.2,30.0,30.33,West,277,0.0,0.0,76,0.00,,,0.00,weatherlink.com 1.10,2013-01-23 04:54:00,
2013-01-22 23:09:00,37.0,31.0,30.33,West,277,0.0,0.0,80,0.00,,,0.00,weatherlink.com 1.10,2013-01-23 05:09:00,
2013-01-22 23:25:00,37.3,30.0,30.33,West,277,0.0,0.0,74,0.00,,,0.00,weatherlink.com 1.10,2013-01-23 05:25:00,
2013-01-22 23:40:00,37.8,29.0,30.32,West,276,0.0,0.0,71,0.00,,,0.00,weatherlink.com 1.10,2013-01-23 05:40:00,
2013-01-22 23:55:00,37.8,31.0,30.32,West,277,0.0,0.0,75,0.00,,,0.00,weatherlink.com 1.10,2013-01-23 05:55:00,